298  
ASUS42 KILM 201813  
RWRILM  
RWRILM  
REGIONAL HOURLY WEATHER ROUNDUP  
NATIONAL WEATHER SERVICE WILMINGTON NC  
200 PM EDT SAT APR 20 2019  
 
NOTE: "FAIR" INDICATES FEW OR NO CLOUDS BELOW 12,000 FEET WITH NO  
SIGNIFICANT WEATHER AND/OR S TO VISIBILITY
.  
   
..............WFO WILMINGTON COUNTY WARNING AREA............
 
 
   
.....COASTAL NC AND SC COUNTIES...
 
 
 
CITY SKY/WX TMP DP RH WIND PRES REMARKS
 
WILMINGTON FAIR 66 47 50 SW18G25 29.82F  
N MYRTLE BEACH FAIR 65 49 56 S24G35 29.81F  
MYRTLE BEACH FAIR 64 50 60 S23G29 29.81F  
   
.....INLAND NC AND SC COUNTIES....
 
 
 
CITY SKY/WX TMP DP RH WIND PRES REMARKS
 
LUMBERTON NOT AVBL  
ELIZABETHTOWN CLOUDY 66 42 41 S15 29.79F  
WHITEVILLE PTSUNNY 66 44 45 S16 29.79F  
FLORENCE PTSUNNY 61 42 49 SW14G25 29.78F  
DARLINGTON CLOUDY 59 43 55 SW17G28 29.78F  
KINGSTREE CLOUDY 59 41 51 S12G21 29.80S  
HARTSVILLE CLOUDY 57 41 54 S14G21 29.77F  
BENNETTSVILLE CLOUDY 59 43 55 S13G22 29.78F  
CONWAY CLOUDY 63 45 51 S13 29.80F HAZE  
GEORGETOWN PTSUNNY 64 43 45 S21G32 29.82F  
MARION CLOUDY 63 45 51 SW9 29.79F  
   
...................REST OF NORTH CAROLINA...................
 
 
   
........EASTERN NC......
 
 
 
CITY SKY/WX TMP DP RH WIND PRES REMARKS
 
CAPE HATTERAS FAIR 67 52 58 SW15G25 29.85F  
JACKSONVILLE FAIR 68 44 42 SW18G28 29.81F  
MOREHEAD CITY FAIR 67 51 56 SW21G30 29.84F  
KENANSVILLE PTSUNNY 66 45 45 SW9G17 29.80S  
NEW BERN FAIR 69 44 40 S21G31 29.82F  
ELIZABETH CITY FAIR 70 49 47 SW20G29 29.78F  
   
........CENTRAL NC......
 
 
 
CITY SKY/WX TMP DP RH WIND PRES REMARKS
 
RALEIGH DURHAM PTSUNNY 60 42 51 SW20G26 29.77R  
ROCKY MOUNT FAIR 66 46 48 SW15G23 29.77F  
ROANOKE RAPIDS NOT AVBL  
FAYETTEVILLE PTSUNNY 63 44 50 SW14 29.78F  
HOFFMAN PTSUNNY 59 40 50 SW18 29.77F  
   
........WESTERN NC......
 
 
 
CITY SKY/WX TMP DP RH WIND PRES REMARKS
 
CHARLOTTE CLOUDY 55 41 59 SW14G26 29.74S  
GREENSBORO PTSUNNY 56 39 53 SW17G25 29.73R  
HICKORY NOT AVBL  
BOONE NOT AVBL  
ASHEVILLE NOT AVBL  
   
....................REST OF SOUTH CAROLINA..................
 
 
   
........EASTERN SC......
 
 
 
CITY SKY/WX TMP DP RH WIND PRES REMARKS
 
CHARLESTON PTSUNNY 64 41 42 SW15G29 29.82S  
BEAUFORT MCAS FAIR 66 43 43 W21G29 29.84S  
HILTON HEAD MOSUNNY 63 39 42 W21G28 29.86S  
   
........CENTRAL SC......
 
 
 
CITY SKY/WX TMP DP RH WIND PRES REMARKS
 
COLUMBIA LGT RAIN 53 45 74 SW12 29.79R  
ORANGEBURG LGT RAIN 55 41 59 SW23G35 29.82R  
SUMTER SHAW CLOUDY 58 42 54 S20G26 29.78S  
   
........WESTERN SC......
 
 
 
CITY SKY/WX TMP DP RH WIND PRES REMARKS
 
GREENVILLE NOT AVBL  
ROCK HILL CLOUDY 53 43 68 S13G26 29.75S  
ANDERSON CLOUDY 54 42 64 SW17G26 29.73S  
CLEMSON NOT AVBL  
GREENWOOD LGT RAIN 53 43 68 SW16G24 29.77S  
 
   
..................COASTAL AND OFFSHORE REPORTS...............
 
 
   
...............LOCAL PIERS AND NC RESERVE.............
 
 
 
STATION/POSITION TIME SKY/WX TEMP WIND PRES VSBY
 
AIR SEA DIR/SP/G  
(UTC) (F) (DEG/KT/KT) (MB) (MI)  
JOHNY MRCER PIER 1742 63 62 200/ 23/ 27 1010.2F  
NC RESRV MASNBRO NOT AVBL  
OCEAN CREST PIER NOT AVBL  
SPRINGMAID PIER NOT AVBL  
 
   
...............COASTAL AND OFFSHORE BUOYS.............
 
 
 
STATION/POSITION TIME SKY/WX TEMP WIND PRES VSBY
 
AIR SEA DIR/SP/G  
(UTC) (F) (DEG/KT/KT) (MB) (MI)  
DIMNDSHOAL 41025 NOT AVBL  
CAPE LOOKOUT 1800 65 240/ 12/ 15 1010.8F  
ONSLOW BAY 41036 NOT AVBL  
ONSLOW BAY 41064 1708 63 65 250/ 16/ 21 1010.2F  
ONSLOW BAY 41159 1800 65 N/A  
WVE H/P(F/S)= 9/ 9 SWL H/P/D(F/S/D)= 3/140/11  
 
MASNBO INL 41110 1800 65 N/A  
WVE H/P(F/S)= 5/11 SWL H/P/D(F/S/D)= 2/140/11  
 
WILM HARBR 41108 1800 67 N/A  
WVE H/P(F/S)= 7/ 9 SWL H/P/D(F/S/D)= 2/160/11  
 
27SE WRITB 41037 1708 63 68 260/ 16/ 21 1010.9F  
FRYING PAN 41013 1750 65 210/ 17/ 21 1011.0F  
WVE H/P(F/S)= 9/10 SWL H/P/D(F/S/D)= 7/170/10  
 
SUNST NRSH 41024 1708 62 67 200/ 23/ 31 1010.4F  
CAPRS NRSH 41029 1708 62 67 230/ 25/ 35 1010.1F  
EDISTO 41004 1800 65 72 210/ 25/ 35 1011.1  
 
   
.........OFFSHORE BUOYS BEYOND 100 NM OFFSHORE........
 
   
....IN A TRIANGLE---HAT TO BERMUDA TO BAHAMAS TO HAT..
 
 
 
 
STATION/POSITION TIME SKY/WX TEMP WIND PRES VSBY
 
AIR SEA DIR/SP/G  
(UTC) (F) (DEG/KT/KT) (MB) (MI)  
150E HAT 41001 NOT AVBL  
W BERMUDA 41048 NOT AVBL  
ATLANTIC S 41049 1750 76 110/ 17/ 23 1026.5F  
WVE H/P(F/S)= 8/ 8 SWL H/P/D(F/S/D)= 3/160/14  
 
E BAHAMAS 41046 1800 120/ 14/ 25 1021.6  
NE BAHAMAS 41047 1750 170/ 19/ 25 1019.8F  
WVE H/P(F/S)= 8/ 8 SWL H/P/D(F/S/D)= 5/120/ 8  
 
120E CANVRL41010 1800 72 78 240/ 19/ 25 1015.0  
 
END  
 
 
CLICK HERE TO GO TO PREVIOUS BULLETINS.

The Nexlab NC Page
The Nexlab SC Page Main Text Page